Location: Burland Observatory
(39.4088°N, 105.4217°W)
Time: 08:59:55
(UTC-07:00)

Tiros 1 - Visible Passes

Search period start: 10 December 2019 00:00
Search period end: 20 December 2019 00:00
Orbit: 630 x 664 km, 48.4° (Epoch: 10 December)

Date Brightness Start Highest point End Pass type
(mag) Time Alt. Az. Time Alt. Az. Time Alt. Az.
10 Dec 8.5 05:10:58 12° SSW 05:14:59 38° SE 05:19:19 10° ENE visible
11 Dec 9.8 03:59:33 15° SE 03:59:33 15° SE 04:02:01 10° E visible
11 Dec 7.2 05:37:18 17° SW 05:40:55 81° SSE 05:45:36 10° ENE visible
12 Dec 8.6 04:25:31 34° ESE 04:25:31 34° ESE 04:29:14 10° ENE visible
12 Dec 7.3 06:03:15 15° W 06:07:03 54° NNW 06:11:39 10° NE visible
13 Dec 7.3 04:51:13 71° ESE 04:51:13 71° ESE 04:55:34 10° ENE visible
13 Dec 7.9 06:29:04 10° W 06:33:23 35° NNW 06:37:41 10° NE visible
14 Dec 10.3 03:39:00 11° ENE 03:39:00 11° ENE 03:39:09 10° ENE visible
14 Dec 7.2 05:16:41 56° NW 05:16:59 58° NNW 05:21:38 10° NE visible
15 Dec 9.6 04:04:19 18° ENE 04:04:19 18° ENE 04:05:31 10° ENE visible
15 Dec 7.9 05:42:00 30° NW 05:43:19 36° NNW 05:47:39 10° NE visible
16 Dec 9.0 04:29:31 26° NE 04:29:31 26° NE 04:31:36 10° NE visible
16 Dec 8.3 06:07:12 18° NW 06:09:47 28° N 06:13:51 10° NE visible
17 Dec 8.4 04:54:38 31° NNE 04:54:38 31° NNE 04:57:38 10° NE visible
17 Dec 8.4 06:32:19 10° WNW 06:36:19 27° N 06:40:18 10° ENE visible
18 Dec 8.3 05:19:40 29° N 05:19:41 29° N 05:23:48 10° NE visible
19 Dec 9.9 04:07:01 13° NE 04:07:01 13° NE 04:07:36 10° NE visible
19 Dec 8.4 05:44:40 22° NNW 05:46:13 27° N 05:50:13 10° ENE visible
